TimeEST,TemperatureF,Dew PointF,Humidity,Sea Level PressureIn,VisibilityMPH,Wind Direction,Wind SpeedMPH,Gust SpeedMPH,PrecipitationIn,Events,Conditions,WindDirDegrees,DateUTC
12:15 AM,14.4,10.2,84,30.26,5.0,Calm,Calm,-,N/A,Snow,Light Snow,0,2013-12-24 05:15:00
12:35 AM,14.0,9.5,82,30.26,7.0,Calm,Calm,-,N/A,Snow,Light Snow,0,2013-12-24 05:35:00
12:55 AM,13.6,8.2,79,30.26,10.0,ENE,3.5,-,N/A,,Overcast,60,2013-12-24 05:55:00
1:15 AM,12.7,7.5,80,30.26,10.0,Calm,Calm,-,N/A,,Overcast,0,2013-12-24 06:15:00
1:35 AM,12.0,6.8,80,30.27,7.0,Calm,Calm,-,N/A,,Overcast,0,2013-12-24 06:35:00
1:55 AM,12.0,7.3,81,30.27,7.0,Calm,Calm,-,N/A,,Overcast,0,2013-12-24 06:55:00
2:15 AM,11.8,7.3,82,30.28,2.0,Calm,Calm,-,N/A,Snow,Light Snow,0,2013-12-24 07:15:00
2:35 AM,11.3,7.2,83,30.29,4.0,Calm,Calm,-,N/A,Snow,Light Snow,0,2013-12-24 07:35:00
2:55 AM,11.5,7.3,83,30.29,7.0,Calm,Calm,-,N/A,Snow,Light Snow,0,2013-12-24 07:55:00
3:15 AM,11.3,7.3,84,30.30,10.0,NNW,3.5,-,N/A,,Overcast,340,2013-12-24 08:15:00
3:35 AM,11.7,7.3,83,30.31,10.0,Calm,Calm,-,N/A,,Overcast,0,2013-12-24 08:35:00
3:55 AM,11.3,7.2,83,30.31,10.0,Calm,Calm,-,N/A,,Overcast,0,2013-12-24 08:55:00
4:15 AM,11.1,7.2,84,30.31,10.0,SE,3.5,-,N/A,,Overcast,130,2013-12-24 09:15:00
4:35 AM,11.3,7.5,85,30.30,10.0,Calm,Calm,-,N/A,,Overcast,0,2013-12-24 09:35:00
4:55 AM,11.3,7.2,83,30.31,10.0,Calm,Calm,-,N/A,,Overcast,0,2013-12-24 09:55:00
5:15 AM,11.7,7.5,83,30.31,10.0,Calm,Calm,-,N/A,,Overcast,0,2013-12-24 10:15:00
5:35 AM,11.1,6.8,83,30.32,10.0,Calm,Calm,-,N/A,,Overcast,0,2013-12-24 10:35:00
5:55 AM,11.3,7.5,85,30.32,10.0,Calm,Calm,-,N/A,,Overcast,0,2013-12-24 10:55:00
6:15 AM,11.1,6.8,83,30.33,10.0,WNW,3.5,-,N/A,,Overcast,300,2013-12-24 11:15:00
6:35 AM,11.1,6.8,83,30.33,10.0,Calm,Calm,-,N/A,,Overcast,0,2013-12-24 11:35:00
6:55 AM,8.8,5.0,85,30.34,10.0,Calm,Calm,-,N/A,,Overcast,0,2013-12-24 11:55:00
7:15 AM,10.2,6.6,85,30.35,10.0,Calm,Calm,-,N/A,,Overcast,0,2013-12-24 12:15:00
7:35 AM,11.7,7.2,82,30.36,10.0,Calm,Calm,-,N/A,,Overcast,0,2013-12-24 12:35:00
7:55 AM,8.8,5.0,85,30.37,10.0,Calm,Calm,-,N/A,,Overcast,0,2013-12-24 12:55:00
8:15 AM,8.2,4.8,86,30.37,10.0,Calm,Calm,-,N/A,,Overcast,0,2013-12-24 13:15:00
8:35 AM,8.6,5.7,88,30.38,10.0,Calm,Calm,-,N/A,,Overcast,0,2013-12-24 13:35:00
8:55 AM,9.5,6.4,87,30.39,10.0,West,3.5,-,N/A,,Overcast,270,2013-12-24 13:55:00
9:15 AM,10.2,6.6,85,30.39,10.0,Calm,Calm,-,N/A,,Overcast,0,2013-12-24 14:15:00
9:35 AM,10.0,5.9,83,30.40,10.0,Calm,Calm,-,N/A,,Overcast,0,2013-12-24 14:35:00
9:55 AM,11.3,7.0,83,30.40,10.0,Calm,Calm,-,N/A,,Overcast,0,2013-12-24 14:55:00
10:15 AM,11.8,7.2,81,30.41,10.0,Calm,Calm,-,N/A,,Overcast,0,2013-12-24 15:15:00
10:35 AM,13.3,6.4,74,30.42,10.0,Calm,Calm,-,N/A,,Overcast,0,2013-12-24 15:35:00
10:55 AM,13.6,5.9,71,30.42,10.0,NNW,4.6,-,N/A,,Overcast,340,2013-12-24 15:55:00
11:15 AM,13.6,5.5,70,30.43,10.0,Calm,Calm,-,N/A,,Overcast,0,2013-12-24 16:15:00
11:35 AM,13.5,5.0,69,30.42,10.0,North,3.5,-,N/A,,Overcast,360,2013-12-24 16:35:00
11:55 AM,13.8,5.0,68,30.42,10.0,Calm,Calm,-,N/A,,Overcast,0,2013-12-24 16:55:00
12:15 PM,14.0,5.4,69,30.42,10.0,Calm,Calm,-,N/A,,Overcast,0,2013-12-24 17:15:00
12:35 PM,14.0,5.9,70,30.41,10.0,Calm,Calm,-,N/A,,Overcast,0,2013-12-24 17:35:00
12:55 PM,14.5,5.7,68,30.42,10.0,Calm,Calm,-,N/A,,Overcast,0,2013-12-24 17:55:00
1:15 PM,14.9,5.9,68,30.41,10.0,Calm,Calm,-,N/A,,Overcast,0,2013-12-24 18:15:00
1:35 PM,15.3,6.3,68,30.41,10.0,SE,3.5,-,N/A,,Overcast,130,2013-12-24 18:35:00
1:55 PM,15.8,6.8,68,30.41,10.0,Calm,Calm,-,N/A,,Overcast,0,2013-12-24 18:55:00
2:15 PM,15.1,6.6,69,30.41,10.0,Calm,Calm,-,N/A,,Overcast,0,2013-12-24 19:15:00
2:35 PM,16.2,7.3,68,30.41,10.0,Calm,Calm,-,N/A,,Overcast,0,2013-12-24 19:35:00
2:55 PM,16.5,7.5,68,30.40,10.0,Calm,Calm,-,N/A,Snow,Light Snow,0,2013-12-24 19:55:00
3:15 PM,16.9,7.7,67,30.41,10.0,Calm,Calm,-,N/A,,Overcast,0,2013-12-24 20:15:00
3:35 PM,16.7,8.2,69,30.41,7.0,ESE,3.5,-,N/A,Snow,Light Snow,120,2013-12-24 20:35:00
3:55 PM,16.2,7.9,70,30.40,10.0,SE,5.8,-,N/A,,Scattered Clouds,140,2013-12-24 20:55:00
4:15 PM,16.5,8.2,70,30.41,10.0,Calm,Calm,-,N/A,,Mostly Cloudy,0,2013-12-24 21:15:00
4:35 PM,17.2,9.7,72,30.42,10.0,SSE,3.5,-,N/A,,Overcast,160,2013-12-24 21:35:00
4:55 PM,17.6,10.4,73,30.42,7.0,SE,3.5,-,N/A,Snow,Light Snow,140,2013-12-24 21:55:00
5:15 PM,18.0,11.1,75,30.42,10.0,Calm,Calm,-,N/A,Snow,Light Snow,0,2013-12-24 22:15:00
5:35 PM,16.0,10.2,78,30.42,10.0,Calm,Calm,-,N/A,,Mostly Cloudy,0,2013-12-24 22:35:00
5:55 PM,14.5,9.5,80,30.42,10.0,SSE,3.5,-,N/A,,Scattered Clouds,150,2013-12-24 22:55:00
6:15 PM,13.1,9.5,86,30.42,10.0,SSE,3.5,-,N/A,,Clear,160,2013-12-24 23:15:00
6:35 PM,12.9,10.2,89,30.42,10.0,SSE,3.5,-,N/A,,Clear,150,2013-12-24 23:35:00
6:55 PM,11.7,9.9,92,30.42,10.0,Calm,Calm,-,N/A,,Clear,0,2013-12-24 23:55:00
7:15 PM,11.1,9.7,94,30.42,10.0,Calm,Calm,-,N/A,,Mostly Cloudy,0,2013-12-25 00:15:00
7:35 PM,10.4,8.4,92,30.42,10.0,SSE,3.5,-,N/A,,Overcast,160,2013-12-25 00:35:00
7:50 PM,11.8,10.0,92,30.42,10.0,Calm,Calm,-,N/A,,Overcast,0,2013-12-25 00:50:00